Voltar ao catálogo

STARLINK-11726

AtivoComunicaçõesVLEO
NORAD 64067·PAYLOAD·🇺🇸 United States

Lançado May 21, 2025 de Cape Canaveral Space Force Station

Loading…

Próximas Passagens (próximas 24 horas)

TLE

AtualizadoSource: CelesTrak SupGP

Época: Sep 14, 2026, 21:07 UTC

1 64067C 25107D   26257.88034722  .00100710  00000+0  78199-3 0  2576
2 64067  43.0008  37.7184 0001684 279.0660 107.3754 15.70795518    15

Acompanhe STARLINK-11726 em tempo real com AllMySat

Download on the App Store